Fairfield, IL

7:04 PM CST on December 09, 2019 (GMT -0600)
Fairfield Municipal

Weather History for KFWC - October, 2019

Change the Weather History Date:

Thursday, October 17, 2019

  Actual Average (WUND) Record (WUND)
Temperature  
Mean Temperature 46 °F -  
Max Temperature 59 °F - - (-1)
Min Temperature 34 °F - - (-1)
Degree Days  
Heating Degree Days 18    
Moisture  
Dew Point 38 °F    
Average Humidity 79    
Maximum Humidity 100    
Minimum Humidity 46    
Precipitation  
Precipitation 0.00 in - - ()
Sea Level Pressure  
Sea Level Pressure 30.06 in    
Wind  
Wind Speed 0 mph ()    
Max Wind Speed 5 mph    
Max Gust Speed -    
Visibility 10.0 miles    
Events      
Averages and records for this station are not official NWS values.
T = Trace of Precipitation, MM = Missing Value Source: Averaged Metar Reports

Daily Weather History Graph

Daily Weather History Graph

Search for Another Location

Airport or City:

Astronomy

Oct. 17, 2019 Rise Set
Actual Time 7:04 AM CDT 6:13 PM CDT
Civil Twilight 6:37 AM CDT 6:39 PM CDT
Nautical Twilight 6:06 AM CDT 7:10 PM CDT
Astronomical Twilight 5:36 AM CDT 7:41 PM CDT
Moon 8:47 PM CDT (10/17) 10:33 AM CDT (10/17)
Length of Visible Light 12h 02m
Length of Day
11h 08m
Waning Gibbous, 86% of the Moon is Illuminated
Oct 17
Waning Gibbous
Oct 21
Last Quarter
Oct 27
New
Nov 4
First Quarter
Nov 12
Full

Hourly Weather History & Observations

Time (CDT) Temp. Dew Point Humidity Pressure Visibility Wind Dir Wind Speed Gust Speed Precip Events Conditions
12:15 AM 41.4 °F 36.9 °F 84% 30.07 in 10.0 mi Calm Calm - N/A   Clear
12:35 AM 39.6 °F 37.2 °F 91% 30.07 in 10.0 mi Calm Calm - N/A   Clear
12:55 AM 40.3 °F 37.4 °F 89% 30.07 in 10.0 mi Calm Calm - N/A   Clear
1:15 AM 40.5 °F 37.0 °F 88% 30.07 in 10.0 mi Calm Calm - N/A   Clear
1:35 AM 41.0 °F 36.9 °F 85% 30.07 in 10.0 mi Calm Calm - N/A   Clear
1:55 AM 40.3 °F 36.5 °F 86% 30.07 in 10.0 mi Calm Calm - N/A   Clear
2:15 AM 40.1 °F 36.5 °F 87% 30.08 in 10.0 mi Calm Calm - N/A   Clear
2:35 AM 37.9 °F 36.7 °F 95% 30.07 in 10.0 mi Calm Calm - N/A   Clear
2:55 AM 39.7 °F 36.9 °F 89% 30.08 in 10.0 mi Calm Calm - N/A   Clear
3:15 AM 39.7 °F 36.9 °F 89% 30.07 in 10.0 mi Calm Calm - N/A   Clear
3:35 AM 39.2 °F 36.5 °F 90% 30.07 in 10.0 mi Calm Calm - N/A   Clear
3:55 AM 38.7 °F 36.5 °F 92% 30.07 in 10.0 mi Calm Calm - N/A   Clear
4:15 AM 37.2 °F 36.7 °F 98% 30.07 in 10.0 mi Calm Calm - N/A   Clear
4:35 AM 37.4 °F 36.0 °F 95% 30.07 in 10.0 mi Calm Calm - N/A   Clear
4:55 AM 37.6 °F 37.0 °F 98% 30.07 in 10.0 mi Calm Calm - N/A   Clear
5:15 AM 35.8 °F 35.8 °F 100% 30.07 in 10.0 mi Calm Calm - N/A   Clear
5:35 AM 36.3 °F 36.3 °F 100% 30.07 in 10.0 mi Calm Calm - N/A   Clear
5:55 AM 34.9 °F 34.9 °F 100% 30.07 in 10.0 mi Calm Calm - N/A   Clear
6:15 AM 36.5 °F 36.5 °F 100% 30.07 in 10.0 mi Calm Calm - N/A   Clear
6:35 AM 34.9 °F 34.9 °F 100% 30.07 in 10.0 mi Calm Calm - N/A   Clear
6:55 AM 35.1 °F 35.1 °F 100% 30.08 in 10.0 mi Calm Calm - N/A   Clear
7:15 AM 37.0 °F 37.0 °F 100% 30.08 in 10.0 mi Calm Calm - N/A   Clear
7:35 AM 36.1 °F 36.1 °F 100% 30.08 in 10.0 mi Calm Calm - N/A   Clear
7:55 AM 37.9 °F 37.9 °F 100% 30.09 in 10.0 mi Calm Calm - N/A   Clear
8:15 AM 39.9 °F 38.3 °F 94% 30.10 in 10.0 mi Calm Calm - N/A   Clear
8:35 AM 41.9 °F 39.0 °F 90% 30.11 in 10.0 mi Calm Calm - N/A   Clear
8:55 AM 43.7 °F 38.5 °F 82% 30.11 in 10.0 mi Calm Calm - N/A   Clear
9:15 AM 45.9 °F 39.2 °F 78% 30.12 in 10.0 mi Calm Calm - N/A   Clear
9:35 AM 47.3 °F 38.8 °F 72% 30.12 in 10.0 mi Calm Calm - N/A   Clear
9:55 AM 49.1 °F 39.4 °F 69% 30.12 in 10.0 mi Calm Calm - N/A   Clear
10:15 AM 50.9 °F 37.9 °F 61% 30.12 in 10.0 mi Calm Calm - N/A   Clear
10:35 AM 51.4 °F 37.6 °F 59% 30.11 in 10.0 mi Calm Calm - N/A   Clear
10:55 AM 51.8 °F 36.5 °F 56% 30.10 in 10.0 mi Calm Calm - N/A   Clear
11:15 AM 53.1 °F 36.9 °F 54% 30.10 in 10.0 mi WNW 3.5 mph - N/A   Clear
11:35 AM 52.9 °F 36.7 °F 54% 30.09 in 10.0 mi Calm Calm - N/A   Clear
11:55 AM 54.0 °F 37.0 °F 53% 30.09 in 10.0 mi WSW 3.5 mph - N/A   Clear
12:15 PM 54.0 °F 37.2 °F 53% 30.08 in 10.0 mi Calm Calm - N/A   Clear
12:35 PM 55.2 °F 37.9 °F 52% 30.08 in 10.0 mi NNW 3.5 mph - N/A   Clear
12:55 PM 56.3 °F 38.3 °F 51% 30.07 in 10.0 mi Calm Calm - N/A   Scattered Clouds
1:15 PM 55.4 °F 37.0 °F 50% 30.06 in 10.0 mi Calm Calm - N/A   Clear
1:35 PM 56.3 °F 37.8 °F 50% 30.06 in 10.0 mi WNW 4.6 mph - N/A   Clear
1:55 PM 56.8 °F 37.8 °F 49% 30.04 in 10.0 mi WSW 3.5 mph - N/A   Clear
2:15 PM 57.4 °F 38.1 °F 49% 30.04 in 10.0 mi Calm Calm - N/A   Clear
2:35 PM 57.6 °F 37.9 °F 48% 30.03 in 10.0 mi Calm Calm - N/A   Clear
2:55 PM 58.3 °F 37.9 °F 47% 30.03 in 10.0 mi Calm Calm - N/A   Clear
3:15 PM 58.8 °F 37.9 °F 46% 30.03 in 10.0 mi Calm Calm - N/A   Clear
3:35 PM 58.8 °F 38.3 °F 47% 30.02 in 10.0 mi West 3.5 mph - N/A   Clear
3:55 PM 58.6 °F 38.3 °F 47% 30.03 in 10.0 mi Calm Calm - N/A   Clear
4:15 PM 59.0 °F 37.9 °F 46% 30.02 in 10.0 mi Calm Calm - N/A   Clear
4:35 PM 58.6 °F 38.1 °F 46% 30.02 in 10.0 mi Calm Calm - N/A   Clear
4:55 PM 58.1 °F 38.3 °F 48% 30.01 in 10.0 mi Calm Calm - N/A   Clear
5:15 PM 57.7 °F 38.3 °F 48% 30.01 in 10.0 mi Calm Calm - N/A   Clear
5:35 PM 56.7 °F 38.7 °F 51% 30.01 in 10.0 mi Calm Calm - N/A   Clear
5:50 PM 55.2 °F 38.8 °F 54% 30.01 in 10.0 mi Calm Calm - N/A   Clear
6:15 PM 50.4 °F 42.1 °F 73% 30.01 in 10.0 mi Calm Calm - N/A   Clear
6:35 PM 48.0 °F 41.9 °F 79% 30.01 in 10.0 mi Calm Calm - N/A   Clear
6:55 PM 45.0 °F 41.4 °F 87% 30.02 in 10.0 mi Calm Calm - N/A   Clear
7:15 PM 43.9 °F 41.9 °F 93% 30.02 in 10.0 mi Calm Calm - N/A   Clear
7:35 PM 42.8 °F 41.9 °F 97% 30.03 in 10.0 mi Calm Calm - N/A   Clear
7:55 PM 42.3 °F 41.7 °F 98% 30.03 in 10.0 mi Calm Calm - N/A   Clear
8:15 PM 41.4 °F 41.2 °F 99% 30.03 in 10.0 mi Calm Calm - N/A   Clear
8:35 PM 40.6 °F 40.6 °F 100% 30.03 in 10.0 mi Calm Calm - N/A   Clear
8:55 PM 41.2 °F 41.2 °F 100% 30.03 in 10.0 mi Calm Calm - N/A   Clear
9:15 PM 40.3 °F 40.3 °F 100% 30.03 in 10.0 mi Calm Calm - N/A   Clear
9:35 PM 39.7 °F 39.7 °F 100% 30.04 in 10.0 mi Calm Calm - N/A   Clear
9:55 PM 39.6 °F 39.6 °F 100% 30.04 in 10.0 mi Calm Calm - N/A   Clear
10:15 PM 39.6 °F 39.6 °F 100% 30.04 in 10.0 mi Calm Calm - N/A   Clear
10:35 PM 39.4 °F 39.4 °F 100% 30.04 in 10.0 mi Calm Calm - N/A   Clear
10:55 PM 37.9 °F 37.9 °F 100% 30.04 in 10.0 mi Calm Calm - N/A   Clear
11:15 PM 39.0 °F 39.0 °F 100% 30.04 in 10.0 mi Calm Calm - N/A   Clear
11:35 PM 39.0 °F 39.0 °F 100% 30.03 in 10.0 mi Calm Calm - N/A   Clear
11:55 PM 37.8 °F 37.8 °F 100% 30.03 in 10.0 mi Calm Calm - N/A   Clear